Погода в Кумбе

Камерун     4°38′00″N   9°26′50″E
темп.,
°C
ветер,
м/с
пор.,
м/с
влажн.,
%
обл.,
%
осадки,
мм/ч
давл.,
гПа
погр.,
м
9 августа, вт
вт901:00+21ююз019973 2.5 101341
04:00+21ссв0099100 2.3 101361
07:00+21с119780 3.0 101456
10:00+26ююв118056 0.9 1015697
13:00+27юз2276100 3.6 10121051
16:00+25ююз238561 4.0 1011616
19:00+22ю119714 7.1 101321
22:00+21ю0098100 0.0 101517
10 августа, ср
ср1001:00+21зюз009980 0.1 101427
04:00+21сз009897 0.0 101330
07:00+21ююв0097100 0.0 101460
10:00+25ююз128172 0.7 1015673
13:00+25ююз238678 3.4 1013562
16:00+25юз238751 4.8 1011582
19:00+22зюз1396100 8.0 1012116
22:00+21зюз1197100 0.4 101468
11 августа, чт
чт1101:00+21зюз0098100 0.4 101337
04:00+21зсз0198100 0.4 101330
07:00+21ссз1198100 2.8 101451
10:00+22сз1295100 2.9 1015160
13:00+24зсз248897 3.7 1013483
16:00+24з2484100 1.6 1012686
19:00+21з2497100 3.0 1013162
22:00+21сз1295100 0.2 101461
12 августа, пт
пт1201:00+21сз1295100 0.2 101352
04:00+21сз1195100 0.1 101329
07:00+21ссз1195100 0.3 101434
10:00+25сз137790 0.1 1015581
13:00+28зсз246061 0.3 10121374
16:00+26з357330 2.6 1011875
19:00+22з2495100 5.2 1013145
22:00+21зсз2396100 0.1 1015100
13 августа, сб
сб1301:00+21зсз1495100 0.1 1014120
04:00+21зсз1396100 0.3 1013155
07:00+21сз1395100 0.3 1015105
10:00+26зсз2366100 0.0 10151092
13:00+29з2456100 0.2 10131600
16:00+25зсз2484100 2.6 1012534
19:00+22зсз2495100 4.6 1013144
22:00+21сз2396100 2.1 1015113